#timestamp,LO_Frequency,Hit,StdDev 
1540742415.0,286046999.3,N
1540742415.9,286046999.3,N
1540742435.8,286046996.6,N
1540742455.6,286046996.9,N
1540742475.5,286046997.9,N
1540742495.3,286046995.0,N
1540742515.1,286046995.0,N
1540742535.9,286046993.3,Y
1540742555.7,286046998.3,P
1540742575.5,286046998.4,N
1540742595.4,286046998.2,N
1540742615.2,286047001.0,N
1540742635.1,286047005.5,Y
1540742636.0,286047005.5,P
1540742655.8,286047005.7,N
1540742675.6,286047007.4,N
1540742695.5,286047001.7,N
1540742715.3,286046998.1,N
1540742735.1,286047000.3,N
1540742755.9,286047001.5,N
1540742775.7,286047003.8,N
1540742795.6,286047003.8,N
1540742815.4,286047005.6,N
1540742835.2,286047004.6,N
1540742855.1,286047010.5,Y
1540742856.0,286047010.5,P
1540742875.8,286047006.6,N
1540742895.7,286047004.9,N
1540742915.5,286047003.0,N
1540742935.3,286047007.2,N
1540742955.2,286047007.0,N
1540742975.9,286047007.4,Y
1540742995.7,286046999.9,P
1540743015.6,286047003.5,N
1540743035.4,286047004.3,N
1540743055.3,286047012.2,Y
1540743075.1,286047006.1,P
1540743076.0,286047006.1,P
1540743095.8,286047007.5,P
1540743115.7,286047004.0,N
1540743135.5,286047001.1,N
1540743155.3,286047000.9,N
1540743175.2,286047000.8,N
1540743195.0,286046997.1,N
1540743195.9,286046997.1,N
1540743215.8,286047001.2,N
1540743235.6,286046999.8,N
1540743255.4,286047001.3,N
1540743275.3,286047001.0,N
1540743295.1,286046997.2,N
1540743315.8,286046999.4,N
1540743335.7,286046998.9,N
1540743355.5,286047000.6,N
1540743375.4,286046995.2,N
1540743395.2,286046997.0,N
1540743415.0,286046995.2,N
1540743415.9,286046995.2,N
1540743435.8,286046993.9,N
1540743455.6,286046990.3,N
1540743475.4,286046992.7,N
1540743495.3,286046990.9,N
1540743515.1,286046991.5,N
1540743535.9,286046994.2,N
1540743555.7,286046992.3,N
1540743575.5,286046988.9,N
1540743595.4,286046987.3,N
1540743615.2,286046986.3,N
1540743635.0,286046984.3,Y
1540743635.9,286046984.3,P
1540743655.8,286046988.0,N
1540743675.6,286046986.1,N
1540743695.5,286046982.2,Y
1540743715.3,286046994.9,P
1540743735.1,286046995.9,N
1540743755.9,286046995.8,N
1540743775.7,286046997.0,N
1540743795.5,286046997.5,N
1540743815.4,286046995.2,N
1540743835.2,286046996.2,N
1540743855.1,286046998.5,N
1540743856.0,286046998.5,N
1540743875.8,286046999.6,N
1540743895.6,286046994.0,N
1540743915.5,286046992.0,N
1540743935.3,286046992.6,N
1540743955.1,286046994.6,N
1540743975.9,286046993.5,N
1540743995.7,286046993.9,N
1540744015.6,286046992.1,Y
1540744035.4,286046999.0,P
1540744055.2,286046999.4,N
1540744075.1,286047002.7,N
1540744076.0,286047002.7,N
1540744095.8,286047000.8,N
1540744115.6,286046998.6,N
1540744135.5,286047002.4,N
1540744155.3,286047004.5,N
1540744175.2,286047002.1,N
1540744195.9,286047000.7,N
1540744215.7,286046998.8,N
1540744235.6,286046997.0,N
1540744255.4,286046999.6,N
1540744275.2,286046997.7,N
1540744295.1,286047004.0,N
1540744296.0,286047004.0,N
1540744315.8,286047000.8,N
1540744335.7,286047000.7,N
1540744355.5,286047000.5,N
1540744375.3,286046999.3,N
1540744395.2,286046998.9,N
1540744415.9,286046999.4,N
1540744435.7,286046998.5,N
1540744455.6,286047001.9,N
1540744475.4,286046999.8,N
1540744495.3,286047000.8,N
1540744515.1,286046999.5,N
1540744516.0,286046999.5,N
1540744535.8,286046996.1,N
1540744555.7,286046995.4,N
1540744575.5,286046994.7,N
1540744595.3,286046999.3,N
1540744615.2,286047003.0,N
1540744635.0,286047000.4,N
1540744635.9,286047000.4,N
1540744655.8,286046995.3,N
1540744675.6,286046991.9,Y
1540744695.4,286046989.3,P
1540744715.3,286046989.2,N
1540744735.1,286046988.9,N
1540744755.8,286046991.2,N
1540744775.7,286046990.7,N
1540744795.5,286046988.2,Y
1540744815.4,286046995.5,P
1540744835.2,286046996.7,N
1540744855.0,286046994.2,N
1540744855.9,286046994.2,Y
1540744875.8,286046995.2,P
1540744895.6,286046994.8,P
1540744915.4,286046990.5,P
1540744935.3,286046988.6,Y
1540744955.1,286046994.0,P
1540745005.9,286046993.6,E
1540745015.8,286046995.5,N
1540745035.7,286046996.6,P
1540745055.5,286046999.1,N
1540745075.3,286046995.3,Y
1540745095.2,286046998.3,P
1540745115.0,286046996.8,P
1540745115.9,286046996.8,P
1540745135.8,286046998.4,N
1540745155.6,286047002.7,Y
1540745175.4,286047002.0,P
1540745195.3,286047000.8,N
1540745215.1,286046996.5,N
1540745235.8,286047002.4,N
1540745255.7,286047001.2,N
1540745275.5,286046995.6,N
1540745295.4,286046994.8,N
1540745315.2,286046993.2,N
1540745335.0,286046991.5,N
1540745335.9,286046991.5,N
1540745355.8,286046990.5,N
1540745375.6,286046999.1,N
1540745395.4,286046996.4,N
1540745415.3,286046991.5,N
1540745435.1,286046987.5,Y
1540745455.9,286046993.5,P
1540745475.7,286046992.5,P
1540745495.5,286046989.0,P
1540745515.4,286046986.8,Y
1540745535.2,286046992.6,P
1540745555.0,286046990.6,P
1540745556.0,286046990.6,P
1540745575.8,286046993.0,Y
1540745595.6,286047000.4,P
1540745615.5,286047000.7,N
1540745635.3,286046995.6,N
1540745655.1,286046993.2,N
1540745675.9,286046998.2,N
1540745695.7,286046999.6,N
1540745715.6,286046994.6,N
1540745735.4,286046992.9,N
1540745755.2,286046990.0,Y
1540745775.1,286046988.7,P
1540745776.0,286046988.7,N
1540745795.8,286046987.5,P
1540745815.6,286046985.3,Y
1540745835.5,286046993.7,P
1540745855.3,286046994.5,P
1540745875.2,286046993.6,P
1540745895.9,286046993.4,Y
1540745915.7,286047002.4,P
1540745935.6,286047005.4,N
1540745955.4,286047010.2,N
1540745975.2,286047008.4,N
1540745995.1,286047010.7,N
1540745996.0,286047010.7,N
